Regional Weather Roundup
Issued by NWS Goodland, KS

Home | Current Version | Previous Version | Graphics & Text | Print | Product List | Glossary On
Versions: 1 2 3 4 5 6 7 8 9 10 11 12 13 14 15 16 17 18 19 20 21 22 23 24 25 26 27 28 29 30 31 32 33 34 35 36 37 38 39 40 41 42 43 44 45 46 47 48 49 50
000
ASUS43 KGLD 270559
RWRGLD

GOODLAND FORECAST AREA HOURLY WEATHER ROUNDUP
NATIONAL WEATHER SERVICE GOODLAND KS
1200 AM MDT FRI MAR 27 2015

...OFFICIAL OBSERVATIONS...

CITY           SKY/WX    TMP DP  RH WIND       PRES   REMARKS
GOODLAND KS    CLOUDY    41  31  67 E9        30.19R
HILL CITY KS   CLOUDY    37  31  78 NE9       30.23R
IMPERIAL NEB     N/A     37  28  70 E7        30.20R
MCCOOK NEB     CLOUDY    35  28  75 E5        30.23R
AKRON CO       CLOUDY    43  35  73 SE5       30.17F
BURLINGTON CO  CLOUDY    45  33  63 NE7       30.18R
LIMON CO       CLOUDY    39  32  76 CALM      30.21R
$$

...UNOFFICIAL OBSERVATIONS...

CITY           SKY/WX    TMP DP  RH WIND       PRES   REMARKS
COLBY KS       CLOUDY    37  34  87 N10       30.21S
GOVE KS          N/A     41  32  70 MISG        N/A
LENORA KS        N/A     34  32  92 MISG        N/A
NORTON KS      MOCLDY    34  27  75 N6        30.21R
SHARON SPRINGS   N/A     45  35  67 NE7         N/A
TRIBUNE KS     CLOUDY    50  37  62 N8        30.19R
KIT CARSON CO    N/A     42  33  70 MISG        N/A
YUMA CO          N/A     42  30  63 CALM        N/A
$$



USA.gov is the U.S. government's official web portal to all federal, state and local government web resources and services.